Weather reports worldwide

Advertisment
Leucate/Semaphore, France (7666): temperature & dewpoint: 11.10.2018 06:00:00 - 17.10.2018 06:00:00 (CEST)Leucate/Semaphore, France (7666): wind speed & gusts: 11.10.2018 06:00:00 - 17.10.2018 06:00:00 (CEST)Leucate/Semaphore, France (7666): wind direction: 11.10.2018 06:00:00 - 17.10.2018 06:00:00 (CEST)Leucate/Semaphore, France (7666): reduced air pressure: 11.10.2018 06:00:00 - 17.10.2018 06:00:00 (CEST)Leucate/Semaphore, France (7666): visibility: 11.10.2018 06:00:00 - 17.10.2018 06:00:00 (CEST)Leucate/Semaphore, France (7666): precipitation: 11.10.2018 06:00:00 - 17.10.2018 06:00:00 (CEST)
Date & Time tt [°C] td [°C] ff [km/h] ff [kn] fx [km/h] fx [kn] dd ppp [hPa] vv [km] rr [mm]
17.10.2018 06:00:00 17,1 14,2 11 6 18 10 NW 1017,0 - 0,0
17.10.2018 05:00:00 17,0 14,1 11 6 19 11 NW 1016,9 15 0,0
17.10.2018 04:00:00 16,9 14,0 11 6 23 12 NW 1017,4 - 0,0
17.10.2018 03:00:00 16,6 14,1 13 7 20 11 NW 1017,8 - 0,0
17.10.2018 02:00:00 17,1 14,4 12 7 22 12 NNW 1018,1 - 0,0
17.10.2018 01:00:00 17,0 14,5 14 8 22 12 NNW 1018,2 - 0,0
17.10.2018 00:00:00 17,3 14,8 14 7 29 16 N 1018,4 - 0,0
16.10.2018 23:00:00 17,3 15,5 14 8 26 14 NNW 1018,6 - 0,0
16.10.2018 22:00:00 18,9 15,8 13 7 36 20 ENE 1018,4 - 0,2
16.10.2018 21:00:00 19,0 15,7 29 16 45 24 ESE 1018,2 - 0,0
16.10.2018 20:00:00 18,9 15,9 33 18 50 27 ESE 1017,8 - 0,0
16.10.2018 19:00:00 18,5 16,7 16 8 44 24 ENE 1017,2 - 0,0
16.10.2018 18:00:00 18,7 15,9 14 8 47 25 NE 1016,7 - 0,0
16.10.2018 17:00:00 18,9 16,5 23 13 45 24 ENE 1016,4 - 0,0
16.10.2018 16:00:00 19,0 16,4 30 16 47 26 E 1016,3 - 0,0
16.10.2018 15:00:00 18,8 16,0 35 19 55 30 E 1016,1 - 3,4
16.10.2018 14:00:00 19,4 16,8 24 13 42 23 E 1016,0 15 0,0
16.10.2018 13:00:00 20,1 16,5 22 12 34 18 ESE 1016,6 - 0,0
16.10.2018 12:00:00 19,7 16,0 23 13 39 21 SE 1016,4 - 0,0
16.10.2018 11:00:00 19,7 16,3 34 18 47 25 SE 1016,0 15 0,0
16.10.2018 10:00:00 19,1 16,7 39 21 52 28 ESE 1015,4 - 0,0
16.10.2018 09:00:00 19,0 16,8 36 19 46 25 ESE 1014,8 - 0,0
16.10.2018 08:00:00 19,0 16,2 30 16 40 21 ESE 1013,9 15 0,0
16.10.2018 07:00:00 19,2 16,4 23 12 34 18 ESE 1013,4 - 0,0
16.10.2018 06:00:00 17,6 16,3 10 6 22 12 E 1013,1 - 0,0
16.10.2018 05:00:00 17,3 16,5 5 3 14 8 ENE 1012,5 15 0,0
16.10.2018 04:00:00 16,1 15,1 3 2 8 5 NW 1012,4 - 0,0
16.10.2018 03:00:00 16,1 15,1 7 4 8 5 WSW 1012,8 - 0,0
16.10.2018 02:00:00 16,2 15,2 5 3 10 5 SSW 1012,4 - 0,0
16.10.2018 01:00:00 16,3 15,0 3 2 15 8 WSW 1011,9 - 0,0
16.10.2018 00:00:00 18,7 16,3 11 6 28 15 SE 1011,3 - 0,0
15.10.2018 23:00:00 17,9 16,4 19 10 37 20 ESE 1011,1 - 28,9
15.10.2018 22:00:00 16,4 14,9 13 7 26 14 NW 1010,7 - 12,4
15.10.2018 21:00:00 17,2 14,5 13 7 30 16 NNW 1010,3 - 0,0
15.10.2018 20:00:00 17,0 14,3 16 9 29 15 NNW 1009,8 - 0,0
15.10.2018 19:00:00 17,8 14,3 19 10 29 16 N 1009,4 - 0,0
15.10.2018 18:00:00 18,2 14,5 15 8 35 19 N 1008,9 - 0,0
15.10.2018 17:00:00 19,0 14,7 13 7 29 15 N 1008,1 8 0,0
15.10.2018 16:00:00 19,1 14,6 14 8 24 13 N 1007,7 - 0,0
15.10.2018 15:00:00 18,8 14,1 13 7 29 16 NNW 1007,7 - 0,0
15.10.2018 14:00:00 18,5 13,4 17 9 35 19 NW 1007,3 8 0,0
15.10.2018 13:00:00 17,0 13,7 20 11 37 20 NNW 1007,6 - 0,0
15.10.2018 12:00:00 16,6 15,3 14 8 40 21 NW 1007,4 - 0,0
15.10.2018 11:00:00 14,8 14,3 19 10 45 24 NW 1006,8 8 0,2
15.10.2018 10:00:00 14,2 13,7 24 13 51 27 NW 1006,0 - 2,0
15.10.2018 09:00:00 15,0 13,9 11 6 69 37 NNE 1005,6 - 22,9
15.10.2018 08:00:00 17,7 16,6 56 31 113 61 SE 1004,6 6 5,1
15.10.2018 07:00:00 19,8 18,5 64 35 90 48 SE 1003,9 - 2,2
15.10.2018 06:00:00 19,5 18,2 66 36 92 50 ESE 1003,9 - 2,8
15.10.2018 05:00:00 19,9 18,4 68 37 96 52 ESE 1004,5 - 0,6
15.10.2018 04:00:00 20,1 18,0 71 38 95 51 ESE 1005,3 - 0,0
15.10.2018 03:00:00 20,3 18,1 68 37 89 48 ESE 1006,1 - 0,0
15.10.2018 02:00:00 20,2 17,4 67 36 88 47 ESE 1006,6 - 0,0
15.10.2018 01:00:00 20,1 17,5 67 36 87 47 ESE 1007,1 - 1,6
15.10.2018 00:00:00 20,1 17,5 61 33 82 44 ESE 1008,1 - 0,0
14.10.2018 23:00:00 20,1 17,5 58 32 79 42 ESE 1008,4 - 0,0
14.10.2018 22:00:00 20,1 17,9 54 29 70 38 ESE 1008,9 - 0,0
14.10.2018 21:00:00 20,1 18,2 41 22 56 30 SE 1009,8 - 0,0
14.10.2018 20:00:00 20,1 18,0 47 26 58 32 SE 1009,8 - 0,0
14.10.2018 19:00:00 20,1 18,4 46 25 59 32 SE 1009,6 - 0,0
14.10.2018 18:00:00 20,2 18,3 49 27 69 37 SE 1009,3 - 0,0
14.10.2018 17:00:00 20,1 18,2 56 30 69 38 SE 1008,9 - 0,8
14.10.2018 16:00:00 20,3 18,4 57 31 72 39 SE 1009,0 - 0,6
14.10.2018 15:00:00 20,5 18,3 57 31 74 40 SE 1009,2 - 0,0
14.10.2018 14:00:00 20,4 18,0 62 33 85 46 SSE 1009,3 10 0,0
14.10.2018 13:00:00 20,5 18,8 57 31 74 40 SE 1010,0 - 0,0
14.10.2018 12:00:00 20,1 18,2 60 33 71 38 SSE 1010,3 - 0,0
14.10.2018 11:00:00 20,4 18,5 53 28 65 35 SE 1010,9 10 0,0
14.10.2018 10:00:00 20,2 18,5 47 25 - - SE 1011,3 - 0,0
14.10.2018 09:00:00 20,4 18,3 51 27 61 33 SSE 1011,1 - 0,0
14.10.2018 08:00:00 20,2 18,5 - - 62 34 - 1011,0 - 0,0
14.10.2018 07:00:00 20,2 18,5 51 28 68 37 SSE 1011,1 - 0,0
14.10.2018 06:00:00 20,2 18,7 50 27 73 39 SSE 1011,4 - 0,0
14.10.2018 05:00:00 20,2 18,7 60 33 83 45 SSE 1011,3 20 0,0
14.10.2018 04:00:00 20,2 18,7 65 35 79 42 SE 1011,5 - 0,0
14.10.2018 03:00:00 20,2 18,7 56 31 73 40 SE 1012,8 - 0,0
14.10.2018 02:00:00 20,1 18,6 55 30 68 37 SE 1013,1 - 0,0
14.10.2018 01:00:00 20,2 18,5 52 28 64 35 SE 1014,0 - 0,0
14.10.2018 00:00:00 20,2 18,5 49 27 66 35 SE 1014,6 - 0,0
13.10.2018 23:00:00 20,2 18,5 52 28 64 34 SE 1014,8 - 0,0
13.10.2018 22:00:00 20,2 18,5 53 29 67 36 SE 1015,0 - 0,0
13.10.2018 21:00:00 20,1 18,8 52 28 64 34 SE 1015,2 - 0,0
13.10.2018 20:00:00 20,2 18,7 53 29 64 35 SE 1015,5 10 0,0
13.10.2018 19:00:00 20,2 18,7 51 27 64 35 SE 1015,7 - 0,0
13.10.2018 18:00:00 20,2 18,5 51 28 64 35 SE 1015,8 - 0,0
13.10.2018 17:00:00 20,2 18,3 48 26 60 33 SE 1016,3 10 0,0
13.10.2018 16:00:00 20,1 18,4 50 27 61 33 SE 1016,8 - 0,0
13.10.2018 15:00:00 20,1 18,4 47 25 60 32 SE 1017,6 - 0,0
13.10.2018 14:00:00 20,0 18,3 47 26 62 34 SE 1018,2 - 0,0
13.10.2018 13:00:00 19,9 18,4 49 26 63 34 SE 1019,0 - 0,0
13.10.2018 12:00:00 20,1 18,6 47 26 59 32 ESE 1019,3 - 0,0
13.10.2018 11:00:00 19,8 18,6 46 25 56 31 ESE 1019,6 - 0,0
13.10.2018 10:00:00 19,9 18,7 44 24 61 33 ESE 1019,7 - 0,0
13.10.2018 09:00:00 19,6 18,8 44 24 54 29 ESE 1019,4 - 0,0
13.10.2018 08:00:00 19,6 18,9 42 23 52 28 ESE 1019,2 - 0,0
13.10.2018 07:00:00 19,7 19,0 38 20 47 26 ESE 1019,6 - 0,0
13.10.2018 06:00:00 19,8 19,1 39 21 48 26 ESE 1020,0 - 0,0
13.10.2018 05:00:00 19,8 19,0 31 17 41 22 ESE 1020,4 - 0,0
13.10.2018 04:00:00 19,8 19,0 33 18 43 23 SE 1020,7 - 0,0
13.10.2018 03:00:00 19,8 19,1 32 17 46 25 SE 1021,3 - 0,0
13.10.2018 02:00:00 19,8 19,0 35 19 42 23 SE 1021,5 - 0,0
13.10.2018 01:00:00 19,8 18,8 37 20 45 25 SE 1021,7 - 0,0
13.10.2018 00:00:00 19,9 18,9 37 20 47 25 SE 1022,0 - 0,0
12.10.2018 23:00:00 19,9 18,9 37 20 47 26 ESE 1022,2 - 0,0
12.10.2018 22:00:00 19,8 18,8 39 21 48 26 ESE 1022,1 - 0,0
12.10.2018 21:00:00 19,9 18,9 38 21 48 26 ESE 1022,0 - 0,0
12.10.2018 20:00:00 19,9 18,9 39 21 51 28 ESE 1021,9 - 0,0
12.10.2018 19:00:00 19,9 18,9 39 21 49 26 ESE 1021,3 - 0,0
12.10.2018 18:00:00 19,9 18,9 41 22 54 29 SE 1021,0 - 0,0
12.10.2018 17:00:00 20,0 19,0 44 24 55 30 SE 1020,8 - 0,0
12.10.2018 16:00:00 20,1 19,1 44 24 54 29 SE 1020,9 - 0,0
12.10.2018 15:00:00 20,1 19,1 42 23 50 27 SE 1021,1 - 0,0
12.10.2018 14:00:00 20,2 19,2 40 22 52 28 SE 1021,4 8 0,0
12.10.2018 13:00:00 19,8 19,1 41 22 53 29 SE 1021,8 - 0,0
12.10.2018 12:00:00 19,8 19,3 40 22 59 32 ESE 1021,8 - 0,0
12.10.2018 11:00:00 19,7 19,2 44 24 71 38 ESE 1021,3 - 0,2
12.10.2018 10:00:00 19,7 19,2 42 23 57 31 ESE 1021,0 - 1,4
12.10.2018 09:00:00 19,7 19,0 - - 46 25 - 1020,7 - 0,0
12.10.2018 08:00:00 19,9 19,1 32 18 44 24 SE 1019,7 12 0,0
12.10.2018 07:00:00 19,8 19,0 34 18 48 26 SE 1018,9 - 0,0
12.10.2018 06:00:00 19,6 18,8 27 14 38 21 SE 1018,8 - 0,0
12.10.2018 05:00:00 19,7 19,0 23 12 35 19 SE 1018,5 12 0,0
12.10.2018 04:00:00 19,6 18,8 29 16 39 21 ESE 1018,1 - 0,0
12.10.2018 03:00:00 19,7 19,0 30 16 39 21 SE 1018,2 - 0,0
12.10.2018 02:00:00 19,7 18,9 12 6 19 11 ESE 1018,2 - 0,0
12.10.2018 01:00:00 19,4 18,6 17 9 29 16 SE 1017,6 - 0,0
12.10.2018 00:00:00 19,3 18,6 15 8 24 13 SE 1017,1 - 0,0
11.10.2018 23:00:00 19,2 18,5 19 11 27 15 SE 1016,7 - 0,0
11.10.2018 22:00:00 19,2 18,5 9 5 18 10 SSE 1016,0 - 0,0
11.10.2018 21:00:00 19,5 18,3 5 3 16 9 NE 1015,1 - 0,0
11.10.2018 20:00:00 19,8 18,5 6 3 21 11 NNE 1014,6 - 0,0
11.10.2018 19:00:00 20,0 18,7 8 5 22 12 NE 1013,7 - 0,0
11.10.2018 18:00:00 20,2 18,5 8 4 15 8 NE 1013,3 - 0,0
11.10.2018 17:00:00 20,4 18,5 4 2 16 8 NE 1012,9 12 0,0
11.10.2018 16:00:00 20,4 18,0 8 4 12 7 N 1012,7 - 0,0
11.10.2018 15:00:00 19,9 17,3 6 3 17 9 E 1012,7 - 0,0
11.10.2018 14:00:00 19,9 16,5 14 7 18 10 ESE 1012,5 10 0,0
11.10.2018 13:00:00 20,3 18,1 6 3 21 11 SE 1012,7 - 0,0
11.10.2018 12:00:00 20,2 18,1 16 9 26 14 SE 1012,7 - 0,0
11.10.2018 11:00:00 19,9 17,7 18 10 24 13 ESE 1012,3 10 0,0
11.10.2018 10:00:00 19,0 17,3 16 8 24 13 ESE 1012,1 - 0,0
11.10.2018 09:00:00 18,8 17,5 13 7 23 12 ESE 1011,2 - 0,0
11.10.2018 08:00:00 18,7 17,5 19 11 29 16 ESE 1010,3 15 0,0
11.10.2018 07:00:00 18,7 17,2 22 12 32 17 SE 1010,2 - 0,0
11.10.2018 06:00:00 18,8 17,5 26 14 33 18 SE 1010,2 - 0,0

tt = temperature
td = dewpoint
ff = wind speed
fx = gusts
dd = wind direction
ppp = reduced air pressure
vv = visibility
rr = precipitation

Next stations